Regional Weather Roundup
Issued by NWS

Home | Current Version | Previous Version | Graphics & Text | Print | Product List | Glossary On
Versions: 1 2 3 4 5 6 7 8 9 10 11 12 13 14 15 16 17 18 19 20 21 22 23 24 25 26 27 28 29 30 31 32 33 34 35 36 37 38 39 40 41 42 43 44 45 46 47 48 49 50
000
ASUS45 KCYS 282210
RWRWY

WYOMING REGIONAL WEATHER ROUNDUP
NATIONAL WEATHER SERVICE CHEYENNE WY
400 PM MDT SAT MAY 28 2016

NOTE:  "FAIR" INDICATES FEW OR NO CLOUDS BELOW 12,000 FEET
WITH NO SIGNIFICANT WEATHER AND/OR OBSTRUCTIONS TO VISIBILITY.

WYZ001-282300-
YELLOWSTONE NATIONAL PARK

CITY           SKY/WX    TMP DP  RH WIND       PRES   REMARKS
LK YELLOWSTONE   N/A     51  20  29 VRB3G17   30.15S
W YELLOWSTONE  NOT AVBL

$$
WYZ002>013-054>058-071-098>099-282300-
NORTHERN WYOMING

CITY           SKY/WX    TMP DP  RH WIND       PRES   REMARKS
JACKSON        MOSUNNY   59  19  21 W18G24    30.08R
CODY           FAIR      63  43  48 NE6       29.98S
GREYBULL       FAIR      69  36  29 CALM      29.94F
WORLAND        FAIR      70  38  31 N5        29.94F
SHERIDAN       FAIR      67  45  45 VRB5      29.98F
BUFFALO        PTSUNNY   63  46  54 N7        30.02R
GILLETTE       PTSUNNY   69  45  41 NW13      29.97R
HULETT         CLOUDY    64  45  48 N8        29.97S
NEWCASTLE      FAIR      70  32  24 NW13      29.94S

$$
WYZ014>020-022>026-101>103-282300-
CENTRAL WYOMING

CITY           SKY/WX    TMP DP  RH WIND       PRES   REMARKS
BIG PINEY      FAIR      62  26  25 W13G18    30.10S
PINEDALE       FAIR      59  28  31 W20       30.10F
DUBOIS         FAIR      59  14  17 W17G28    30.05S
LANDER         FAIR      70  29  21 SW10      29.96S
RIVERTON       FAIR      69  27  20 MISG      29.98S
CASPER         FAIR      67  40  37 N5        29.97S
DOUGLAS          N/A    N/A N/A N/A MISG      29.98S

$$
WYZ021-027>030-104>119-282300-
SOUTHERN WYOMING

CITY           SKY/WX    TMP DP  RH WIND       PRES   REMARKS
EVANSTON       FAIR      63  33  32 W21G28    30.12S
KEMMERER         N/A     59  32  36 W16G30    30.13R
FORT BRIDGER   PTCLDY    63  30  29 W18G28    30.14R
ROCK SPRINGS   PTSUNNY   62  34  35 W17       30.08S
DIXON          MOCLDY    61  39  44 CALM      30.14S
RAWLINS        FAIR      65  28  24 W22G30    30.08S
SARATOGA       FAIR      61  34  36 NW9G18    30.11F
LARAMIE        PTSUNNY   58  29  33 NW23G36   30.10R
CHEYENNE       CLOUDY    70  34  26 W16G23    30.04R
TORRINGTON     FAIR      72  39  30 N7        29.94R
PINE BLUFFS    DRIZZLE   61  39  44 CALM      30.03R

$$



USA.gov is the U.S. government's official web portal to all federal, state and local government web resources and services.